Regional Weather Roundup
Issued by NWS Newport/Morehead, NC

Current Version | Previous Version | Text Only | Print | Product List | Glossary On
Versions: 1 2 3 4 5 6 7 8 9 10 11 12 13 14 15 16 17 18 19 20 21 22 23 24 25 26 27 28 29 30 31 32 33 34 35 36 37 38 39 40 41 42 43 44 45 46 47 48 49 50
000
ASUS42 KMHX 311324
RWRMHX
WEATHER ROUNDUP FOR EASTERN NORTH CAROLINA
NATIONAL WEATHER SERVICE NEWPORT/MOREHEAD CITY NC
900 AM EDT MON AUG 31 2015

NOTE: "FAIR" INDICATES FEW OR NO CLOUDS BELOW 12,000 FEET
WITH NO SIGNIFICANT WEATHER AND/OR OBSTRUCTIONS TO VISIBILITY

NCZ015>017-031-032-045>047-102-103-311400-
NORTH COAST

CITY           SKY/WX    TMP DP  RH WIND       PRES   REMARKS
EDENTON        CLOUDY    74  69  83 CALM      30.13S
ELIZABETH CITY CLOUDY    77  69  76 CALM      30.13S
KITTY HAWK     CLOUDY    79  73  81 CALM      30.12S
MANTEO         CLOUDY    76  71  83 CALM      30.13S

$$

NCZ045>047-081-094-103-104-311400-
CENTRAL COAST

CITY           SKY/WX    TMP DP  RH WIND       PRES   REMARKS
FRISCO         CLOUDY    79  73  82 E5        30.12S
SWANQUARTER    NOT AVBL

$$

NCZ095-097-098-100-101-311400-
SOUTHERN COAST

CITY           SKY/WX    TMP DP  RH WIND       PRES   REMARKS
BEAUFORT       CLOUDY    77  72  84 SE8       30.11R
CEDAR ISLAND   NOT AVBL
JACKSONVILLE   LGT RAIN  78  73  84 E9        30.09R
PINEY ISLAND   CLOUDY   N/A N/A N/A E6        30.11R
WILMINGTON     CLOUDY    78  74  87 SE8       30.08R


$$

NCZ011>013-027>030-043-044-078>080-089-090>093-098-311400-
COASTAL PLAIN

CITY           SKY/WX    TMP DP  RH WIND       PRES   REMARKS
AHOSKIE        RAIN      68  67  96 N3        30.14F
CLINTON        LGT RAIN  72  72 100 CALM      30.11S
ELIZABETHTOWN  HVY RAIN  74  74 100 CALM      30.11R
GOLDSBORO      LGT RAIN  72  68  88 CALM      30.11R
GREENVILLE     CLOUDY    72  70  94 N5        30.13S
HAVELOCK       CLOUDY    78  71  79 SE6       30.12R
KENANSVILLE    LGT RAIN  71  70  96 CALM      30.10F
KINSTON        LGT RAIN  72  70  94 NE6       30.11S
NEW BERN       CLOUDY    78  71  79 E5        30.12R
RICHLANDS      CLOUDY    73  68  83 E5        30.09S
ROCKY MOUNT    LGT RAIN  70  68  93 NE8       30.12S FOG
WASHINGTON     CLOUDY    73  68  85 NE5       30.12S
WHITEVILLE     RAIN      74  72  93 SW3       30.09R

$$

AMZ130-135-150-152-154-156-158-170-250-252-270-ANZ085-086-088-633-658-670-311400-
MARINE OBSERVATIONS

STATION/POSITION TIME  TEMP    WIND        PRES    WAVE   SWELL
                       AIR SEA DIR/SP/G            HT/PER HT/PER
                 (UTC) (F)     (DEG/KT/KT) (MB)    (FT/S) (FT/S)
CHESAPEAKE LIGHT 1300   77     230/  6/  7 1020.9
64 E VA BEACH    1250   78 78  260/  6/  8 1019.8    3/10   3/10
DUCK             NOT AVBL
2 E DUCK         1211      79                N/A     3/10   2/11
OREGON INLET     NOT AVBL
13E OREGON INLT  1300      78                N/A     3/ 9   2/11
HATTERAS CG      NOT AVBL
DIAMOND BUOY     1250   82 84  140/  4/  6 1020.0    3/ 9   3/ 9
CAPE LOOKOUT     1300   76     130/ 12/ 12 1019.5
BEAUFORT LAB     NOT AVBL
30 SE NEW RVR IN 1208   81 81  100/ 10/ 14 1018.9
30 SE NEW RVR IN 1225      81                N/A     4/ 9   2/11
27 SE WRIGHTSVLE 1300   75 81  150/  4/  6   N/A
5 SE WRIGHTSVLE  1208   78 82  130/ 10/ 14 1018.4
225 S CAPE HAT   1250   82 84  140/ 10/ 12 1019.6    3/ 9   3/ 9
41 SE CHARLESTON 1250   82 84  170/ 17/ 21 1016.6    6/10   3/10

$$


USA.gov is the U.S. government's official web portal to all federal, state and local government web resources and services.